Location: *
(60.1759°S, 155.0663°W)
Time: 09:19:27
(UTC+00:00)

CZ-2C R/B - Pass Details

Date: 17 September 2019
Orbit: 669 x 784 km, 98.1° (Epoch: 17 October)

Event Time Altitude Azimuth Distance (km) Brightness Sun altitude
Exits shadow 14:55:53 - 337° (NNW) 3,188 5.3 -11.6°
Reaches altitude 10° 14:58:19 10° 325° (NW) 2,363 4.6 -11.3°
Maximum altitude 15:02:39 26° 269° (W) 1,537 3.5 -10.8°
Drops below altitude 10° 15:06:59 10° 213° (SSW) 2,358 4.8 -10.3°
Sets 15:09:41 0° 200° (SSW) 3,277 5.7 -9.9°
